アトラス彗星

C/2022 E2 ( ATLAS )

English version
Home page
Updated on November 6, 2022

---------------------------------------------------------------------

・ プロフィール

発見日 2022年3月7日
発見光度 18.7等
発見者 Asteroid Terrestrial-Impact Last Alert System (ATLAS) search program

・ 写真集

・ 軌道要素

Epoch 2022 Aug. 9.0 TT = JDT 2459800.5
T 2024 Sept. 13.84346 TT                                Rudenko
q   3.6669219            (2000.0)            P               Q
z  -0.0003709      Peri.   41.66822     -0.03474217     +0.83130233
 +/-0.0000029      Node   125.35325     +0.63784116     -0.40887503
e   1.0013601      Incl.  137.14433     +0.76938394     +0.37650717
>From 206 observations 2022 Feb. 23-Oct. 30, mean residual 0".4.

・ 星図

・ 光度変化

        m1 = 4.5 + 5 logΔ + 10.0 log r

---------------------------------------------------------------------

軌道要素はM.P.E.C. 2022-V95に掲載されたものです。
星図はステラナビゲータ Ver.10 (アストロアーツ) で作成したものです。
光度グラフはComet for Windowsで作成したものです。

---------------------------------------------------------------------

Copyright(C) Seiichi Yoshida (comet@aerith.net). All rights reserved.